Flag for Hungary Weather past 2 weeks in Debrecen, Hungary

Now
45 °F

Quite cool.


Feels Like: 45 °F
Forecast: 40 / 49 °F
Wind: 1 mph from Northwest

Location: Debrecen

Current Time: Feb 28, 2015 at 10:51:55 PM

Latest Report: Feb 28, 2015 at 10:00 PM


Visibility: N/A

Pressure: 30.09 "Hg

Humidity: 93%

Dew point: 43 °F

Location of DebrecenLocation

Historic Weather in Debrecen — Graph

°F

Debrecen temperature yesterday

Maximum temperature yesterday: 47 °F (at 2:00 PM)
Minimum temperature yesterday: 41 °F (at 8:00 AM)
Average temperature yesterday: 44 °F

Past Weeks' High & Low Weather Summary

 TemperatureHumidityPressure
High60 °F (Feb 24, 3:00 PM)100% (Feb 23, 10:00 PM)30.76 "Hg (Feb 23, 10:00 PM)
Low16 °F (Feb 18, 7:00 AM)18% (Feb 17, 4:00 PM)29.67 "Hg (Feb 24, 2:00 PM)
Average39 °F72%30.11 "Hg
* Reported Feb 13 9:00 PM — Feb 28 9:00 PM, Debrecen, Weather by CustomWeather, © 2015

Note: Actual official high and low records may vary slightly from our data, if they occured in-between our weather recording intervals... More about our weather records

Advertising

Debrecen weather history for previous 24 hours

 ConditionsComfort  
Time TempWeatherWind HumidityBarometerVisibility
9:00 PM
Sat, Feb 28
45 °FQuite cool.2 mph94%30.09 "HgN/A
8:00 PM46 °FCool.2 mph89%30.07 "HgN/A
7:00 PM46 °FCool.2 mph88%30.06 "HgN/A
6:00 PM47 °FCool.2 mph88%30.06 "HgN/A
5:00 PM49 °FOvercast.3 mph68%30.05 "Hg12 mi
4:00 PM51 °FOvercast.5 mph67%30.04 "Hg12 mi
3:00 PM51 °FOvercast.3 mph68%30.03 "Hg7 mi
2:00 PM51 °FOvercast.3 mph70%30.03 "Hg8 mi
1:00 PM51 °FOvercast.2 mph65%30.03 "Hg9 mi
12:00 PM51 °FOvercast.3 mph64%30.03 "Hg9 mi
11:00 AM48 °FOvercast.3 mph68%30.03 "Hg7 mi
10:00 AM46 °FOvercast.5 mph71%30.03 "Hg11 mi
9:00 AM45 °FOvercast.5 mph73%30.02 "Hg4 mi
8:00 AM42 °FOvercast.3 mph81%30.02 "Hg4 mi
7:00 AM41 °FOvercast.3 mph82%30.00 "Hg7 mi
6:00 AM40 °FOvercast.2 mph86%29.99 "Hg9 mi
5:00 AM41 °FQuite cool.2 mph87%29.98 "HgN/A
4:00 AM42 °FQuite cool.2 mph88%29.97 "HgN/A
3:00 AM43 °FQuite cool.2 mph84%29.97 "HgN/A
2:00 AM43 °FQuite cool.2 mph83%29.97 "HgN/A
1:00 AM43 °FQuite cool.2 mph81%29.97 "HgN/A
12:00 AM43 °FQuite cool.3 mph82%29.97 "HgN/A
11:00 PM
Fri, Feb 27
43 °FQuite cool.5 mph84%29.97 "HgN/A
10:00 PM43 °FQuite cool.3 mph84%29.97 "HgN/A
Weather by CustomWeather, © 2015

See weather overviewHow to use our weather pages